Time,TemperatureF,DewpointF,PressureIn,WindDirection,WindDirectionDegrees,WindSpeedMPH,WindSpeedGustMPH,Humidity,HourlyPrecipIn,Conditions,Clouds,dailyrainin,SoftwareType,DateUTC
2013-01-23 00:04:00,34.3,25.2,-100.00,North,-999,0.0,0.0,69,0.00,,,-99.99,FreeWX-Wi 1.01,2013-01-23 08:04:00,
2013-01-23 00:09:00,34.5,25.7,-100.00,North,-999,0.0,0.0,70,0.00,,,-99.99,FreeWX-Wi 1.01,2013-01-23 08:09:00,
2013-01-23 00:14:00,34.7,25.9,-100.00,North,-999,0.0,0.0,70,0.00,,,-99.99,FreeWX-Wi 1.01,2013-01-23 08:14:00,
2013-01-23 00:19:00,34.9,26.1,-100.00,North,-999,0.0,0.0,70,0.00,,,-99.99,FreeWX-Wi 1.01,2013-01-23 08:19:00,
2013-01-23 00:24:00,34.7,25.5,-100.00,North,-999,0.0,0.0,69,0.00,,,-99.99,FreeWX-Wi 1.01,2013-01-23 08:24:00,
2013-01-23 00:29:00,34.5,25.3,-100.00,North,-999,0.0,0.0,69,0.00,,,-99.99,FreeWX-Wi 1.01,2013-01-23 08:29:00,
2013-01-23 00:34:00,34.3,25.2,-100.00,North,-999,0.0,0.0,69,0.00,,,-99.99,FreeWX-Wi 1.01,2013-01-23 08:34:00,
2013-01-23 00:39:00,34.5,25.3,-100.00,North,-999,0.0,0.0,69,0.00,,,-99.99,FreeWX-Wi 1.01,2013-01-23 08:39:00,
2013-01-23 00:44:00,34.5,25.3,-100.00,North,-999,0.0,0.0,69,0.00,,,-99.99,FreeWX-Wi 1.01,2013-01-23 08:44:00,
2013-01-23 00:49:00,34.5,25.7,-100.00,North,-999,0.0,0.0,70,0.00,,,-99.99,FreeWX-Wi 1.01,2013-01-23 08:49:00,
2013-01-23 00:54:00,34.7,25.9,-100.00,North,-999,0.0,2.7,70,0.00,,,-99.99,FreeWX-Wi 1.01,2013-01-23 08:54:00,
2013-01-23 00:59:00,34.9,26.1,-100.00,North,-999,0.0,0.0,70,0.00,,,-99.99,FreeWX-Wi 1.01,2013-01-23 08:59:00,
2013-01-23 01:04:00,34.9,26.1,-100.00,North,-999,0.0,0.0,70,0.00,,,-99.99,FreeWX-Wi 1.01,2013-01-23 09:04:00,
2013-01-23 01:09:00,34.7,25.9,-100.00,North,-999,0.0,0.0,70,0.00,,,-99.99,FreeWX-Wi 1.01,2013-01-23 09:09:00,
2013-01-23 01:14:00,34.5,25.7,-100.00,North,-999,0.0,3.1,70,0.00,,,-99.99,FreeWX-Wi 1.01,2013-01-23 09:14:00,
2013-01-23 01:19:00,34.5,25.7,-100.00,North,-999,0.0,0.0,70,0.00,,,-99.99,FreeWX-Wi 1.01,2013-01-23 09:19:00,
2013-01-23 01:24:00,34.7,25.9,-100.00,North,-999,0.0,3.6,70,0.00,,,-99.99,FreeWX-Wi 1.01,2013-01-23 09:24:00,
2013-01-23 01:29:00,34.5,25.7,-100.00,North,-999,0.0,0.0,70,0.00,,,-99.99,FreeWX-Wi 1.01,2013-01-23 09:29:00,
2013-01-23 01:34:00,34.7,25.9,-100.00,North,-999,0.0,0.0,70,0.00,,,-99.99,FreeWX-Wi 1.01,2013-01-23 09:34:00,
2013-01-23 01:39:00,34.7,25.9,-100.00,North,-999,0.0,0.0,70,0.00,,,-99.99,FreeWX-Wi 1.01,2013-01-23 09:39:00,
2013-01-23 01:44:00,34.7,25.9,-100.00,North,-999,0.0,0.0,70,0.00,,,-99.99,FreeWX-Wi 1.01,2013-01-23 09:44:00,
2013-01-23 01:49:00,34.9,26.4,-100.00,North,-999,0.0,0.0,71,0.00,,,-99.99,FreeWX-Wi 1.01,2013-01-23 09:49:00,
2013-01-23 01:54:00,34.9,26.4,-100.00,North,-999,0.0,4.9,71,0.00,,,-99.99,FreeWX-Wi 1.01,2013-01-23 09:54:00,